Location: Unspecified
(0.0000°N, 0.0000°E)
Time: 00:50:12
(UTC+00:00)

ISS - Pass Details

Date: 11 December 2020
Orbit: 418 x 419 km, 51.6° (Epoch: 17 January)

Event Time Altitude Azimuth Distance (km) Brightness Sun altitude
Rises 18:13:41 0° 356° (N) 2,342 -0.2 -4.6°
Reaches altitude 10° 18:16:48 10° 28° (NNE) 1,484 -1.4 -5.3°
Maximum altitude 18:18:13 12° 54° (NE) 1,357 -1.8 -5.7°
Drops below altitude 10° 18:19:39 10° 79° (E) 1,488 -1.6 -6.0°
Enters shadow 18:22:04 - 106° (ESE) 2,117 -0.7 -6.5°
